Time,TemperatureF,DewpointF,PressureIn,WindDirection,WindDirectionDegrees,WindSpeedMPH,WindSpeedGustMPH,Humidity,HourlyPrecipIn,Conditions,Clouds,dailyrainin,SoftwareType,DateUTC
2013-03-30 00:02:00,42.0,23.0,-100.00,West,270,0.0,0.0,48,0.00,,,-99.99,,2013-03-30 05:02:00,
2013-03-30 00:12:00,42.0,23.0,-100.00,West,270,0.0,0.0,48,0.00,,,-99.99,,2013-03-30 05:12:00,
2013-03-30 00:42:00,42.0,25.0,-100.00,West,265,0.0,0.0,50,0.00,,,-99.99,,2013-03-30 05:42:00,
2013-03-30 00:52:00,42.0,25.0,-100.00,West,265,0.0,0.0,50,0.00,,,-99.99,,2013-03-30 05:52:00,
2013-03-30 01:02:00,42.0,25.0,-100.00,West,265,0.0,0.0,50,0.00,,,-99.99,,2013-03-30 06:02:00,
2013-03-30 01:12:00,42.0,25.0,-100.00,West,265,0.0,0.0,50,0.00,,,-99.99,,2013-03-30 06:12:00,
2013-03-30 01:22:00,42.0,25.0,-100.00,West,265,0.0,0.0,50,0.00,,,-99.99,,2013-03-30 06:22:00,
2013-03-30 01:42:00,42.0,25.0,-100.00,West,265,0.0,0.0,50,0.00,,,-99.99,,2013-03-30 06:42:00,
2013-03-30 01:52:00,42.0,25.0,-100.00,West,265,0.0,0.0,50,0.00,,,-99.99,,2013-03-30 06:52:00,
2013-03-30 02:02:00,42.0,25.0,-100.00,West,265,0.0,0.0,50,0.00,,,-99.99,,2013-03-30 07:02:00,
2013-03-30 02:12:00,42.0,25.0,-100.00,West,265,0.0,0.0,50,0.00,,,-99.99,,2013-03-30 07:12:00,
2013-03-30 02:20:00,42.0,25.0,-100.00,SW,225,0.0,0.0,50,0.00,,,-99.99,,2013-03-30 07:20:00,
2013-03-30 02:22:00,42.0,25.0,-100.00,West,265,0.0,0.0,50,0.00,,,-99.99,,2013-03-30 07:22:00,
2013-03-30 02:42:00,42.0,25.0,-100.00,SW,225,0.0,0.0,50,0.00,,,-99.99,,2013-03-30 07:42:00,
2013-03-30 02:52:00,42.0,25.0,-100.00,SW,225,0.0,0.0,50,0.00,,,-99.99,,2013-03-30 07:52:00,
2013-03-30 03:02:00,42.0,25.0,-100.00,SW,225,0.0,0.0,50,0.00,,,-99.99,,2013-03-30 08:02:00,
2013-03-30 03:12:00,42.0,25.0,-100.00,SW,225,0.0,0.0,50,0.00,,,-99.99,,2013-03-30 08:12:00,
2013-03-30 03:21:00,42.0,26.0,-100.00,WSW,240,0.0,0.0,52,0.00,,,-99.99,,2013-03-30 08:21:00,
2013-03-30 03:42:00,42.0,26.0,-100.00,WSW,240,0.0,0.0,52,0.00,,,-99.99,,2013-03-30 08:42:00,
2013-03-30 03:53:00,42.0,26.0,-100.00,WSW,240,0.0,0.0,52,0.00,,,-99.99,,2013-03-30 08:53:00,
2013-03-30 04:02:00,42.0,26.0,-100.00,WSW,240,0.0,0.0,52,0.00,,,-99.99,,2013-03-30 09:02:00,
2013-03-30 04:12:00,42.0,26.0,-100.00,WSW,240,0.0,0.0,52,0.00,,,-99.99,,2013-03-30 09:12:00,
2013-03-30 04:22:00,41.0,26.0,-100.00,SSW,195,0.0,0.0,56,0.00,,,-99.99,,2013-03-30 09:22:00,
2013-03-30 04:43:00,41.0,26.0,-100.00,SSW,195,0.0,0.0,56,0.00,,,-99.99,,2013-03-30 09:43:00,
2013-03-30 04:53:00,41.0,26.0,-100.00,SSW,195,0.0,0.0,56,0.00,,,-99.99,,2013-03-30 09:53:00,
2013-03-30 05:02:00,41.0,26.0,-100.00,SSW,195,0.0,0.0,56,0.00,,,-99.99,,2013-03-30 10:02:00,
2013-03-30 05:13:00,41.0,26.0,-100.00,SSW,195,0.0,0.0,56,0.00,,,-99.99,,2013-03-30 10:13:00,
2013-03-30 05:21:00,41.0,27.0,-100.00,South,190,0.0,0.0,57,0.00,,,-99.99,,2013-03-30 10:21:00,
2013-03-30 05:42:00,41.0,27.0,-100.00,South,190,0.0,0.0,57,0.00,,,-99.99,,2013-03-30 10:42:00,
2013-03-30 05:52:00,41.0,27.0,-100.00,South,190,0.0,0.0,57,0.00,,,-99.99,,2013-03-30 10:52:00,
2013-03-30 06:03:00,41.0,27.0,-100.00,South,190,0.0,0.0,57,0.00,,,-99.99,,2013-03-30 11:03:00,
2013-03-30 06:12:00,41.0,27.0,-100.00,South,190,0.0,0.0,57,0.00,,,-99.99,,2013-03-30 11:12:00,
2013-03-30 06:22:00,40.0,27.0,-100.00,SSW,200,0.0,0.0,58,0.00,,,-99.99,,2013-03-30 11:22:00,
2013-03-30 06:43:00,40.0,27.0,-100.00,SSW,200,0.0,0.0,58,0.00,,,-99.99,,2013-03-30 11:43:00,
2013-03-30 06:53:00,40.0,27.0,-100.00,SSW,200,0.0,0.0,58,0.00,,,-99.99,,2013-03-30 11:53:00,
2013-03-30 07:02:00,40.0,27.0,-100.00,SSW,200,0.0,0.0,58,0.00,,,-99.99,,2013-03-30 12:02:00,
2013-03-30 07:12:00,40.0,27.0,-100.00,SSW,200,0.0,0.0,58,0.00,,,-99.99,,2013-03-30 12:12:00,
2013-03-30 07:20:00,40.0,27.0,-100.00,West,260,0.0,0.0,59,0.00,,,-99.99,,2013-03-30 12:20:00,
2013-03-30 07:43:00,40.0,27.0,-100.00,West,260,0.0,0.0,59,0.00,,,-99.99,,2013-03-30 12:43:00,
2013-03-30 07:53:00,40.0,27.0,-100.00,West,260,0.0,0.0,59,0.00,,,-99.99,,2013-03-30 12:53:00,
2013-03-30 08:02:00,40.0,27.0,-100.00,West,260,0.0,0.0,59,0.00,,,-99.99,,2013-03-30 13:02:00,
2013-03-30 08:12:00,40.0,27.0,-100.00,West,260,0.0,0.0,59,0.00,,,-99.99,,2013-03-30 13:12:00,
2013-03-30 08:22:00,41.0,29.0,-100.00,WNW,290,0.0,0.0,62,0.00,,,-99.99,,2013-03-30 13:22:00,
2013-03-30 08:43:00,41.0,29.0,-100.00,WNW,290,0.0,0.0,62,0.00,,,-99.99,,2013-03-30 13:43:00,
2013-03-30 08:53:00,41.0,29.0,-100.00,WNW,290,0.0,0.0,62,0.00,,,-99.99,,2013-03-30 13:53:00,
2013-03-30 09:02:00,41.0,29.0,-100.00,WNW,290,0.0,0.0,62,0.00,,,-99.99,,2013-03-30 14:02:00,
2013-03-30 09:11:00,41.0,29.0,-100.00,WNW,290,0.0,0.0,62,0.00,,,-99.99,,2013-03-30 14:11:00,
2013-03-30 09:21:00,43.0,30.0,-100.00,SW,215,0.0,0.0,61,0.00,,,-99.99,,2013-03-30 14:21:00,
2013-03-30 09:43:00,43.0,30.0,-100.00,SW,215,0.0,0.0,61,0.00,,,-99.99,,2013-03-30 14:43:00,
2013-03-30 09:52:00,43.0,30.0,-100.00,SW,215,0.0,0.0,61,0.00,,,-99.99,,2013-03-30 14:52:00,
2013-03-30 10:02:00,43.0,30.0,-100.00,SW,215,0.0,0.0,61,0.00,,,-99.99,,2013-03-30 15:02:00,
2013-03-30 10:12:00,43.0,30.0,-100.00,SW,215,0.0,0.0,61,0.00,,,-99.99,,2013-03-30 15:12:00,
2013-03-30 10:21:00,45.0,33.0,-100.00,WSW,250,0.0,0.0,61,0.00,,,-99.99,,2013-03-30 15:21:00,
2013-03-30 10:43:00,45.0,33.0,-100.00,WSW,250,0.0,0.0,61,0.00,,,-99.99,,2013-03-30 15:43:00,
2013-03-30 10:53:00,45.0,33.0,-100.00,WSW,250,0.0,0.0,61,0.00,,,-99.99,,2013-03-30 15:53:00,
2013-03-30 11:03:00,45.0,33.0,-100.00,WSW,250,0.0,0.0,61,0.00,,,-99.99,,2013-03-30 16:03:00,
2013-03-30 11:13:00,45.0,33.0,-100.00,WSW,250,0.0,0.0,61,0.00,,,-99.99,,2013-03-30 16:13:00,
2013-03-30 11:20:00,47.0,33.0,-100.00,SW,225,0.0,0.0,59,0.00,,,-99.99,,2013-03-30 16:20:00,
2013-03-30 11:43:00,47.0,33.0,-100.00,SW,225,0.0,0.0,59,0.00,,,-99.99,,2013-03-30 16:43:00,
2013-03-30 11:53:00,47.0,33.0,-100.00,SW,225,0.0,0.0,59,0.00,,,-99.99,,2013-03-30 16:53:00,
2013-03-30 12:02:00,47.0,33.0,-100.00,SW,225,0.0,0.0,59,0.00,,,-99.99,,2013-03-30 17:02:00,
2013-03-30 12:13:00,47.0,33.0,-100.00,SW,225,0.0,0.0,59,0.00,,,-99.99,,2013-03-30 17:13:00,
2013-03-30 12:21:00,48.0,35.0,-100.00,WSW,240,0.0,0.0,59,0.00,,,-99.99,,2013-03-30 17:21:00,
2013-03-30 12:43:00,48.0,35.0,-100.00,WSW,240,0.0,0.0,59,0.00,,,-99.99,,2013-03-30 17:43:00,
2013-03-30 12:53:00,48.0,35.0,-100.00,WSW,240,0.0,0.0,59,0.00,,,-99.99,,2013-03-30 17:53:00,
2013-03-30 13:03:00,48.0,35.0,-100.00,WSW,240,0.0,0.0,59,0.00,,,-99.99,,2013-03-30 18:03:00,
2013-03-30 13:12:00,48.0,35.0,-100.00,WSW,240,0.0,0.0,59,0.00,,,-99.99,,2013-03-30 18:12:00,
2013-03-30 13:43:00,49.0,35.0,-100.00,West,260,0.0,0.0,60,0.00,,,-99.99,,2013-03-30 18:43:00,
2013-03-30 13:53:00,49.0,35.0,-100.00,West,260,0.0,0.0,60,0.00,,,-99.99,,2013-03-30 18:53:00,
2013-03-30 14:03:00,49.0,35.0,-100.00,West,260,0.0,0.0,60,0.00,,,-99.99,,2013-03-30 19:03:00,
2013-03-30 14:13:00,49.0,35.0,-100.00,West,260,0.0,0.0,60,0.00,,,-99.99,,2013-03-30 19:13:00,
2013-03-30 14:22:00,49.0,35.0,-100.00,West,260,0.0,0.0,60,0.00,,,-99.99,,2013-03-30 19:22:00,
2013-03-30 14:42:00,48.0,36.0,-100.00,WSW,255,0.0,0.0,65,0.00,,,-99.99,,2013-03-30 19:42:00,
2013-03-30 14:53:00,48.0,36.0,-100.00,WSW,255,0.0,0.0,65,0.00,,,-99.99,,2013-03-30 19:53:00,
2013-03-30 15:02:00,48.0,36.0,-100.00,WSW,255,0.0,0.0,65,0.00,,,-99.99,,2013-03-30 20:02:00,
2013-03-30 15:12:00,48.0,36.0,-100.00,WSW,255,0.0,0.0,65,0.00,,,-99.99,,2013-03-30 20:12:00,
2013-03-30 15:21:00,46.0,40.0,-100.00,West,265,0.0,0.0,81,0.00,,,-99.99,,2013-03-30 20:21:00,
2013-03-30 15:43:00,46.0,40.0,-100.00,West,265,0.0,0.0,81,0.00,,,-99.99,,2013-03-30 20:43:00,
2013-03-30 15:53:00,46.0,40.0,-100.00,West,265,0.0,0.0,81,0.00,,,-99.99,,2013-03-30 20:53:00,
2013-03-30 16:02:00,46.0,40.0,-100.00,West,265,0.0,0.0,81,0.00,,,-99.99,,2013-03-30 21:02:00,
2013-03-30 16:12:00,46.0,40.0,-100.00,West,265,0.0,0.0,81,0.00,,,-99.99,,2013-03-30 21:12:00,
2013-03-30 16:21:00,43.0,43.0,-100.00,WNW,285,0.0,0.0,98,0.00,,,-99.99,,2013-03-30 21:21:00,
2013-03-30 16:43:00,43.0,43.0,-100.00,WNW,285,0.0,0.0,98,0.00,,,-99.99,,2013-03-30 21:43:00,
2013-03-30 16:53:00,43.0,43.0,-100.00,WNW,285,0.0,0.0,98,0.00,,,-99.99,,2013-03-30 21:53:00,
2013-03-30 17:03:00,43.0,43.0,-100.00,WNW,285,0.0,0.0,98,0.00,,,-99.99,,2013-03-30 22:03:00,
2013-03-30 17:13:00,43.0,43.0,-100.00,WNW,285,0.0,0.0,98,0.00,,,-99.99,,2013-03-30 22:13:00,
2013-03-30 17:22:00,44.0,44.0,-100.00,West,280,0.0,0.0,99,0.00,,,-99.99,,2013-03-30 22:22:00,
2013-03-30 17:43:00,44.0,44.0,-100.00,West,280,0.0,0.0,99,0.00,,,-99.99,,2013-03-30 22:43:00,
2013-03-30 17:53:00,44.0,44.0,-100.00,West,280,0.0,0.0,99,0.00,,,-99.99,,2013-03-30 22:53:00,
2013-03-30 18:02:00,44.0,44.0,-100.00,West,280,0.0,0.0,99,0.00,,,-99.99,,2013-03-30 23:02:00,
2013-03-30 18:12:00,44.0,44.0,-100.00,West,280,0.0,0.0,99,0.00,,,-99.99,,2013-03-30 23:12:00,
2013-03-30 18:22:00,43.0,43.0,-100.00,West,270,0.0,0.0,99,0.00,,,-99.99,,2013-03-30 23:22:00,
2013-03-30 18:43:00,43.0,43.0,-100.00,West,270,0.0,0.0,99,0.00,,,-99.99,,2013-03-30 23:43:00,
2013-03-30 18:53:00,43.0,43.0,-100.00,West,270,0.0,0.0,99,0.00,,,-99.99,,2013-03-30 23:53:00,
2013-03-30 19:02:00,43.0,43.0,-100.00,West,270,0.0,0.0,99,0.00,,,-99.99,,2013-03-31 00:02:00,
2013-03-30 19:12:00,43.0,43.0,-100.00,West,270,0.0,0.0,99,0.00,,,-99.99,,2013-03-31 00:12:00,
2013-03-30 19:20:00,42.0,42.0,-100.00,WNW,290,0.0,0.0,99,0.00,,,-99.99,,2013-03-31 00:20:00,
2013-03-30 19:43:00,42.0,42.0,-100.00,WNW,290,0.0,0.0,99,0.00,,,-99.99,,2013-03-31 00:43:00,
2013-03-30 19:53:00,42.0,42.0,-100.00,WNW,290,0.0,0.0,99,0.00,,,-99.99,,2013-03-31 00:53:00,
2013-03-30 20:02:00,42.0,42.0,-100.00,WNW,290,0.0,0.0,99,0.00,,,-99.99,,2013-03-31 01:02:00,
2013-03-30 20:12:00,42.0,42.0,-100.00,WNW,290,0.0,0.0,99,0.00,,,-99.99,,2013-03-31 01:12:00,
2013-03-30 20:20:00,40.0,40.0,-100.00,NW,305,0.0,0.0,99,0.00,,,-99.99,,2013-03-31 01:20:00,
2013-03-30 20:43:00,40.0,40.0,-100.00,NW,305,0.0,0.0,99,0.00,,,-99.99,,2013-03-31 01:43:00,
2013-03-30 20:53:00,40.0,40.0,-100.00,NW,305,0.0,0.0,99,0.00,,,-99.99,,2013-03-31 01:53:00,
2013-03-30 21:02:00,40.0,40.0,-100.00,NW,305,0.0,0.0,99,0.00,,,-99.99,,2013-03-31 02:02:00,
2013-03-30 21:13:00,40.0,40.0,-100.00,NW,305,0.0,0.0,99,0.00,,,-99.99,,2013-03-31 02:13:00,
2013-03-30 23:22:00,39.0,38.0,-100.00,WNW,295,0.0,0.0,99,0.00,,,-99.99,,2013-03-31 04:22:00,
2013-03-30 23:43:00,39.0,38.0,-100.00,WNW,295,0.0,0.0,99,0.00,,,-99.99,,2013-03-31 04:43:00,
2013-03-30 23:53:00,39.0,38.0,-100.00,WNW,295,0.0,0.0,99,0.00,,,-99.99,,2013-03-31 04:53:00,